[[{"header":{"parameterUnit":"m.s-1","parameterCategory":1,"la1":30.2991,"la2":30.254,"lo1":-89.0895,"lo2":-89.0444,"dy":0.0017,"dx":0.0017,"nx":28,"ny":28,"refTime":"2025-04-27T21:00:00:Z","depth":0,"parameterNumber":2,"parameterNumberName":"U-component_of_WINDS"},"data":[0,0,0,0,0,0,0,0,0,0,0,0,0,0,0,0,0,0,0,0,0,0,0,0,0,0,0,0,0,0,0,0,0,0,0,0,0,0,0,0,0,0,0,0,0,0,0,0,0,0,0,0,0,0,0,0,0,0,-2.8484,-2.8485,0,-2.8518,-2.8518,-2.8518,-2.8502,-2.8501,-2.85,-2.8499,-2.8534,-2.8536,-2.8538,0,0,0,0,0,0,0,0,0,0,0,0,0,-2.8409,-2.8411,-2.8484,-2.8485,-2.8485,-2.8517,-2.8518,-2.8518,-2.8502,-2.8501,-2.85,-2.8499,-2.8534,-2.8536,-2.8538,0,0,0,0,0,0,0,0,0,0,0,0,0,-2.8442,-2.8411,-2.8484,-2.8481,-2.8481,-2.8517,-2.8518,-2.8519,-2.8502,-2.8501,-2.85,-2.8498,-2.8533,-2.8536,-2.8538,-2.858,0,0,-2.8546,-2.8547,0,0,0,0,0,0,0,0,-2.844,-2.8445,-2.8481,-2.8481,-2.8481,-2.8504,-2.8504,-2.8539,-2.8502,-2.8494,-2.8499,-2.8498,-2.8525,-2.8529,-2.8538,-2.8582,-2.8583,-2.8546,-2.8548,-2.8549,-2.855,0,0,0,0,0,0,0,-2.8438,-2.8443,-2.8497,-2.8481,-2.8482,-2.8478,-2.8482,-2.8511,-2.8517,-2.8495,-2.8494,-2.8498,-2.8525,-2.8535,-2.8538,-2.8584,-2.8546,-2.8549,-2.855,-2.8551,-2.8666,-2.8667,0,0,0,0,0,0,-2.8436,-2.8442,-2.8496,-2.8498,-2.8457,-2.8481,-2.8484,-2.8498,-2.8516,-2.8518,-2.8499,-2.8497,-2.8531,-2.8535,-2.8539,-2.859,-2.8549,-2.8551,-2.8553,-2.8664,-2.8666,-2.8668,0,0,0,0,0,0,-2.8434,-2.8441,-2.8495,-2.847,-2.8476,-2.8484,-2.8499,-2.8499,-2.8509,-2.8519,-2.852,-2.8508,-2.853,-2.8536,-2.857,-2.8591,-2.8553,-2.8555,-2.8663,-2.8665,-2.8667,-2.8691,0,0,0,0,0,0,-2.8432,-2.844,-2.8455,-2.847,-2.8478,-2.8525,-2.85,-2.8501,-2.8514,-2.8511,-2.8528,-2.8529,-2.853,-2.8567,-2.8573,-2.8594,-2.8557,-2.8661,-2.8664,-2.8666,-2.8688,-2.8694,-2.8698,0,0,0,0,0,-2.8429,-2.8461,-2.8456,-2.8463,-2.8497,-2.8526,-2.853,-2.853,-2.8515,-2.8531,-2.8538,-2.8529,-2.8588,-2.857,-2.8577,-2.8599,-2.8659,-2.8663,-2.8666,-2.8686,-2.8693,-2.8698,0,0,0,0,0,0,-2.8448,-2.8463,-2.8458,-2.8495,-2.8509,-2.8523,-2.8542,-2.8537,-2.8555,-2.8552,-2.8552,-2.8556,-2.8591,-2.8599,-2.8579,-2.8642,-2.8622,-2.8627,-2.8635,-2.8641,-2.8646,-2.8642,-2.8559,0,0,0,0,0,-2.8457,-2.8478,-2.849,-2.8522,-2.8529,-2.8535,-2.8547,-2.8546,-2.8561,-2.8567,-2.8576,-2.8592,-2.8614,-2.8628,-2.8649,-2.8691,-2.8694,-2.8709,-2.8715,-2.8719,-2.8722,-2.8745,-2.8752,-2.8679,-2.8679,-2.8679,0,0,-2.8474,-2.8485,-2.8498,-2.8526,-2.8537,-2.856,-2.854,-2.8565,-2.8582,-2.8571,-2.8603,-2.8612,-2.8629,-2.8667,-2.8684,-2.8675,-2.8744,-2.8723,-2.8726,-2.8727,-2.8749,-2.8756,-2.8762,-2.8681,-2.868,-2.868,0,0,-2.8517,-2.8528,-2.8555,-2.8567,-2.8584,-2.8588,-2.8595,-2.861,-2.8615,-2.8648,-2.8641,-2.8662,-2.87,-2.8713,-2.8724,-2.8776,-2.8768,-2.8783,-2.8808,-2.883,-2.8836,-2.8841,-2.8859,-2.8865,-2.8787,-2.8787,-2.8787,0,-2.8536,-2.857,-2.857,-2.8596,-2.8609,-2.8601,-2.8629,-2.8641,-2.8664,-2.8673,-2.8663,-2.8711,-2.8722,-2.8763,-2.8776,-2.8786,-2.8794,-2.8779,-2.8835,-2.884,-2.8845,-2.8862,-2.8869,-2.8789,-2.8788,-2.8788,-2.8788,0,-2.8593,-2.8617,-2.8637,-2.866,-2.8675,-2.8702,-2.8707,-2.8723,-2.8722,-2.8727,-2.8762,-2.8776,-2.8799,-2.881,-2.8808,-2.8852,-2.8845,-2.8835,-2.8814,-2.8854,-2.8869,-2.8876,-2.8791,-2.879,-2.879,-2.8789,0,0,-2.8645,-2.867,-2.8677,-2.8687,-2.8707,-2.8726,-2.8754,-2.8777,-2.879,-2.8808,-2.8831,-2.8865,-2.8856,-2.887,-2.887,-2.889,-2.893,-2.8878,-2.8878,-2.8886,-2.8978,-2.8984,-2.8991,-2.8926,-2.8927,-2.8928,-2.8976,0,-2.8689,-2.8736,-2.8738,-2.8782,-2.8804,-2.8798,-2.8823,-2.8838,-2.8845,-2.8865,-2.8874,-2.8897,-2.8884,-2.8892,-2.8912,-2.8921,-2.8948,-2.8918,-2.8947,-2.8948,-2.8941,-2.9,-2.9005,-2.905,-2.8982,-2.8983,-2.8984,0,-2.8745,-2.8764,-2.8809,-2.8827,-2.8837,-2.8858,-2.888,-2.89,-2.8918,-2.8922,-2.8938,-2.8937,-2.8966,-2.8947,-2.8988,-2.8967,-2.898,-2.8987,-2.8989,-2.8989,-2.8967,-2.9001,-2.9064,-2.907,-2.8994,-2.8993,-2.8993,0,-2.8777,-2.8815,-2.8847,-2.8856,-2.8878,-2.8893,-2.8903,-2.892,-2.8935,-2.8955,-2.8964,-2.8988,-2.9001,-2.902,-2.9025,-2.9011,-2.9066,-2.9047,-2.907,-2.907,-2.908,-2.9078,-2.9144,-2.9092,-2.9091,-2.9091,-2.9091,0,-2.8824,-2.8852,-2.8862,-2.8881,-2.8913,-2.8916,-2.8948,-2.8957,-2.8973,-2.8994,-2.8992,-2.9013,-2.902,-2.9042,-2.9047,-2.908,-2.9087,-2.909,-2.9091,-2.9089,-2.9089,-2.9096,-2.9092,-2.9093,-2.9093,-2.9092,-2.9092,0,-2.8865,-2.8872,-2.8907,-2.8925,-2.8931,-2.8953,-2.8969,-2.8988,-2.8996,-2.9024,-2.9031,-2.9043,-2.9069,-2.9077,-2.9109,-2.9113,-2.9151,-2.915,-2.9145,-2.9144,-2.9166,-2.9163,-2.9237,-2.9246,-2.9189,-2.919,-2.919,0,-2.8893,-2.8914,-2.8935,-2.895,-2.896,-2.8983,-2.8998,-2.9004,-2.902,-2.9043,-2.906,-2.9086,-2.9107,-2.915,-2.9162,-2.9187,-2.9186,-2.921,-2.9189,-2.9187,-2.9184,-2.9182,-2.9184,-2.9213,-2.9213,-2.9214,-2.9214,0,-2.8942,-2.8946,-2.8967,-2.899,-2.9008,-2.9026,-2.9044,-2.9057,-2.9065,-2.9083,-2.911,-2.9127,-2.916,-2.9186,-2.9212,-2.9223,-2.922,-2.9221,-2.9228,-2.9225,-2.922,-2.9222,-2.9153,-2.9219,-2.9218,-2.9218,-2.9218,-2.9218,-2.8976,-2.8995,-2.9013,-2.9037,-2.9052,-2.9069,-2.9088,-2.9099,-2.9121,-2.9148,-2.9151,-2.918,-2.92,-2.9234,-2.9247,-2.9271,-2.9264,-2.9273,-2.9275,-2.9277,-2.9278,-2.9219,-2.9276,-2.9276,-2.9275,-2.9275,-2.9275,0,-2.9025,-2.9036,-2.9059,-2.9084,-2.9103,-2.91,-2.912,-2.9137,-2.9162,-2.9181,-2.9202,-2.9233,-2.926,-2.9275,-2.9301,-2.9317,-2.9317,-2.9324,-2.9322,-2.9324,-2.9283,-2.9274,-2.9324,-2.9324,-2.9324,-2.9324,-2.9324,-2.9324,-2.9052,-2.9083,-2.9089,-2.9128,-2.914,-2.9168,-2.918,-2.9196,-2.9211,-2.9246,-2.9268,-2.9278,-2.9295,-2.9323,-2.9348,-2.9352,-2.9361,-2.9368,-2.9372,-2.9332,-2.9327,-2.9322,-2.9314,-2.9371,-2.9371,-2.9411,-2.9411,-2.9411]},{"header":{"parameterUnit":"m.s-1","parameterCategory":1,"la1":30.2991,"la2":30.254,"lo1":-89.0895,"lo2":-89.0444,"dy":0.0017,"dx":0.0017,"nx":28,"ny":28,"refTime":"2025-04-27T21:00:00:Z","depth":0,"parameterNumber":3,"parameterNumberName":"V-component_of_WINDS"},"data":[0,0,0,0,0,0,0,0,0,0,0,0,0,0,0,0,0,0,0,0,0,0,0,0,0,0,0,0,0,0,0,0,0,0,0,0,0,0,0,0,0,0,0,0,0,0,0,0,0,0,0,0,0,0,0,0,0,0,3.4505,3.4506,0,3.4559,3.4559,3.456,3.4626,3.4627,3.4628,3.4629,3.468,3.4681,3.4681,0,0,0,0,0,0,0,0,0,0,0,0,0,3.4458,3.4458,3.4505,3.4506,3.4506,3.4559,3.4559,3.456,3.4626,3.4627,3.4629,3.463,3.468,3.4681,3.4681,0,0,0,0,0,0,0,0,0,0,0,0,0,3.4491,3.4459,3.4505,3.4546,3.455,3.4558,3.4559,3.456,3.4626,3.4627,3.4629,3.463,3.468,3.4681,3.4681,3.4653,0,0,3.4683,3.4683,0,0,0,0,0,0,0,0,3.4489,3.4493,3.4539,3.4543,3.4548,3.4588,3.4562,3.4591,3.4625,3.4597,3.4629,3.4631,3.4648,3.4651,3.4658,3.4655,3.4657,3.4683,3.4683,3.4684,3.4684,0,0,0,0,0,0,0,3.4487,3.4491,3.4526,3.454,3.4545,3.4561,3.4567,3.4567,3.4613,3.4599,3.4604,3.461,3.4651,3.4657,3.4659,3.4658,3.4683,3.4684,3.4684,3.4684,3.4638,3.4636,0,0,0,0,0,0,3.4479,3.4489,3.4524,3.4528,3.4522,3.456,3.4568,3.4573,3.4613,3.4621,3.4609,3.4613,3.4655,3.4659,3.4661,3.4633,3.4684,3.4684,3.4684,3.4639,3.4637,3.4636,0,0,0,0,0,0,3.4478,3.4482,3.4522,3.451,3.4516,3.4559,3.4565,3.4573,3.458,3.462,3.4628,3.4607,3.4657,3.4661,3.4655,3.4635,3.4684,3.4685,3.4641,3.4639,3.4637,3.4573,0,0,0,0,0,0,3.4476,3.4481,3.4471,3.4509,3.4517,3.4516,3.4564,3.4573,3.4581,3.4587,3.4621,3.4628,3.4658,3.4654,3.4656,3.4637,3.4685,3.4643,3.464,3.4637,3.4577,3.4569,3.4562,0,0,0,0,0,3.4474,3.4449,3.447,3.4474,3.4505,3.4514,3.4518,3.4555,3.4579,3.4569,3.4596,3.4626,3.4637,3.4653,3.4656,3.4636,3.4645,3.4641,3.4637,3.4581,3.4571,3.4562,0,0,0,0,0,0,3.4405,3.4455,3.4478,3.4465,3.4485,3.4525,3.4514,3.4543,3.4556,3.4561,3.4605,3.4612,3.4602,3.4618,3.4635,3.4612,3.4646,3.4642,3.4602,3.4592,3.4585,3.4581,3.4686,0,0,0,0,0,3.4389,3.4393,3.4436,3.442,3.4429,3.447,3.4475,3.4502,3.4524,3.4533,3.4558,3.4578,3.4586,3.459,3.4599,3.458,3.4589,3.4568,3.4561,3.4554,3.4551,3.4544,3.4536,3.4624,3.4624,3.4624,0,0,3.4354,3.4382,3.4382,3.4407,3.4426,3.4429,3.4476,3.4477,3.448,3.4532,3.453,3.4549,3.4574,3.4562,3.4558,3.4576,3.4529,3.455,3.4544,3.4545,3.454,3.4531,3.4524,3.4622,3.4622,3.4623,0,0,3.4293,3.4314,3.4305,3.4323,3.4352,3.438,3.4377,3.4414,3.4429,3.4428,3.4468,3.4472,3.4484,3.4501,3.4511,3.4459,3.4488,3.446,3.442,3.4413,3.4406,3.44,3.4383,3.4376,3.4457,3.4457,3.4457,0,3.4246,3.4254,3.4296,3.4295,3.4306,3.4355,3.4346,3.4362,3.4391,3.4397,3.4417,3.4435,3.4455,3.4449,3.4437,3.4443,3.4442,3.4457,3.4404,3.4398,3.4393,3.4377,3.4371,3.4453,3.4454,3.4454,3.4455,0,3.4195,3.42,3.4189,3.4219,3.4228,3.4222,3.4263,3.4267,3.4294,3.432,3.4318,3.4344,3.4361,3.4361,3.4386,3.4359,3.437,3.4396,3.443,3.4381,3.4367,3.4361,3.4448,3.445,3.4451,3.4452,0,0,3.4091,3.4146,3.4141,3.4157,3.4193,3.4197,3.4194,3.4212,3.4216,3.4235,3.4234,3.4245,3.427,3.4282,3.4309,3.4303,3.4262,3.433,3.4332,3.4318,3.4235,3.4216,3.4208,3.4282,3.4281,3.428,3.4234,0,3.4037,3.4038,3.4076,3.4065,3.4071,3.4119,3.4117,3.4139,3.4163,3.4171,3.4197,3.4205,3.4237,3.4245,3.4241,3.4268,3.4246,3.4272,3.4282,3.4282,3.4275,3.42,3.4179,3.4134,3.4228,3.4227,3.4227,0,3.3974,3.3993,3.3983,3.4022,3.4026,3.4023,3.4044,3.4051,3.4077,3.4096,3.411,3.4142,3.4142,3.4175,3.4177,3.4193,3.42,3.4214,3.4213,3.4216,3.4251,3.4202,3.412,3.4114,3.4218,3.4219,3.4219,0,3.3901,3.3923,3.392,3.3932,3.3977,3.3974,3.3993,3.4021,3.403,3.4048,3.4054,3.4071,3.408,3.4093,3.4129,3.4149,3.4127,3.4162,3.4142,3.4141,3.4135,3.4135,3.4054,3.4138,3.4138,3.4138,3.4138,0,3.3837,3.383,3.3888,3.3887,3.388,3.3925,3.3917,3.394,3.3965,3.3968,3.4011,3.4013,3.4061,3.4069,3.4097,3.4095,3.4098,3.4113,3.4121,3.4109,3.4108,3.4114,3.4119,3.4137,3.4137,3.4137,3.4138,0,3.3754,3.3793,3.3794,3.3837,3.3848,3.3841,3.3879,3.3879,3.3907,3.3911,3.3915,3.3958,3.3969,3.4007,3.4027,3.4047,3.4036,3.405,3.4028,3.4033,3.4011,3.4013,3.3932,3.3924,3.4012,3.4011,3.401,0,3.3711,3.3707,3.3751,3.3757,3.3775,3.3784,3.3795,3.3839,3.3847,3.3879,3.3875,3.3891,3.3906,3.3922,3.3955,3.3971,3.3987,3.3957,3.3989,3.3979,3.3987,3.3988,3.3988,3.395,3.3949,3.3948,3.3947,0,3.3631,3.3651,3.3665,3.3687,3.3698,3.3717,3.3737,3.374,3.3789,3.3797,3.3811,3.3822,3.3845,3.386,3.3882,3.3901,3.3932,3.3937,3.3934,3.3922,3.391,3.3918,3.401,3.3939,3.394,3.394,3.3941,3.3941,3.3567,3.3567,3.3599,3.3613,3.3634,3.3653,3.3656,3.3686,3.3698,3.3721,3.3746,3.3757,3.3785,3.3818,3.3835,3.3844,3.3861,3.3855,3.3854,3.3852,3.3848,3.3908,3.3848,3.3848,3.3849,3.3849,3.3849,0,3.3491,3.3515,3.3528,3.3557,3.3568,3.3599,3.3624,3.3632,3.3641,3.3666,3.368,3.3697,3.3712,3.3747,3.3765,3.3766,3.3781,3.377,3.377,3.3774,3.3831,3.3833,3.3757,3.3757,3.3757,3.3757,3.3757,3.3757,3.3453,3.3454,3.3478,3.349,3.3514,3.3526,3.3538,3.3556,3.3576,3.3593,3.3607,3.363,3.3659,3.368,3.3696,3.3706,3.3711,3.3695,3.3709,3.3761,3.377,3.3778,3.378,3.3696,3.3695,3.3653,3.3652,3.3652]}]]